Location: Godzisko
(49.9648°N, 19.4576°E)
Time: 01:17:48
(UTC+00:00)

USA 307 - Pass Details

Date: 20 April 2021
Orbit: 566 x 577 km, 54.0° (Epoch: 07 May)

Event Time Altitude Azimuth Distance (km) Brightness Sun altitude
Exits shadow 01:33:15 13° 289° (WNW) 1,673 5.0 -17.9°
Maximum altitude 01:36:51 49° 3° (N) 754 3.8 -17.5°
Drops below altitude 10° 01:41:02 10° 79° (ENE) 1,891 6.4 -17.0°
Sets 01:43:21 0° 85° (E) 2,790 7.3 -16.7°
